FW5763 Weather Reports


Display with metric or nautical units.
time (UTC)temp
F
wind
direction
speed
MPH
gust
MPH
rain 1hr
in
rain 24hr
in
rain mn
in
humidity
%
barometer
mb
20260510200615 63 199 5.0 9.0 0.00 0.00 0.00 75 1015.8
20260510195615 63 125 3.0 9.0 0.00 0.00 0.00 76 1015.8
20260510194615 62 187 3.0 7.0 0.00 0.00 0.00 75 1015.9
20260510193615 62 227 5.0 9.0 0.00 0.00 0.00 76 1016.0
20260510192615 62 202 4.0 6.0 0.00 0.00 0.00 76 1016.0
20260510191615 61 175 4.0 8.0 0.00 0.00 0.00 78 1016.1
20260510190615 61 76 2.0 4.0 0.00 0.00 0.00 79 1016.1
20260510185615 61 187 4.0 6.0 0.00 0.00 0.00 78 1016.4
20260510184615 61 116 3.0 5.0 0.00 0.00 0.00 80 1016.5
20260510183615 60 168 1.0 7.0 0.00 0.00 0.00 82 1016.6
20260510182615 58 108 3.0 7.0 0.00 0.00 0.00 84 1016.7
20260510181615 58 191 3.0 6.0 0.00 0.00 0.00 84 1016.8
20260510180615 57 193 3.0 5.0 0.00 0.00 0.00 85 1016.7
20260510175615 57 227 2.0 7.0 0.00 0.00 0.00 84 1016.9
20260510174615 58 168 3.0 8.0 0.00 0.00 0.00 84 1017.0
20260510173615 58 195 4.0 6.0 0.00 0.00 0.00 84 1016.9
20260510172615 58 216 4.0 8.0 0.00 0.00 0.00 83 1016.9
20260510171615 58 145 5.0 7.0 0.00 0.00 0.00 83 1016.7
20260510170615 58 133 2.0 5.0 0.00 0.00 0.00 83 1016.7
20260510165615 59 203 5.0 7.0 0.00 0.00 0.00 83 1016.8
20260510164635 58 148 2.0 4.0 0.00 0.00 0.00 84 1016.8
20260510163615 58 142 3.0 5.0 0.00 0.00 0.00 84 1016.8
20260510162635 57 165 3.0 6.0 0.00 0.00 0.00 86 1016.6
20260510161615 56 172 2.0 6.0 0.00 0.00 0.00 87 1016.5
20260510160615 55 141 0.0 2.0 0.00 0.00 0.00 88 1016.6
20260510155635 55 118 2.0 3.0 0.00 0.00 0.00 89 1016.7
20260510154635 54 141 1.0 1.0 0.00 0.00 0.00 89 1016.7
20260510153635 54 0.0 1.0 0.00 0.00 0.00 89 1016.6
20260510152615 54 128 1.0 3.0 0.00 0.00 0.00 89 1016.5
20260510151615 54 127 0.0 1.0 0.00 0.00 0.00 89 1016.4
20260510150615 54 42 2.0 3.0 0.00 0.00 0.00 89 1016.4
20260510145635 53 222 1.0 2.0 0.00 0.00 0.00 89 1016.4
20260510144615 53 231 2.0 3.0 0.00 0.00 0.00 90 1016.3
20260510143615 53 244 2.0 2.0 0.00 0.00 0.00 90 1016.3
20260510142615 53 254 1.0 3.0 0.00 0.00 0.00 90 1016.2
20260510141615 52 286 1.0 2.0 0.00 0.00 0.00 90 1016.1
20260510140615 52 255 2.0 2.0 0.00 0.00 0.00 90 1016.1
20260510135615 52 275 1.0 3.0 0.00 0.00 0.00 91 1015.8
20260510134614 52 248 1.0 2.0 0.00 0.00 0.00 91 1015.8
20260510133615 52 259 0.0 2.0 0.00 0.00 0.00 91 1015.6
20260510132617 52 0.0 1.0 0.00 0.00 0.00 91 1015.4
20260510131637 52 246 1.0 1.0 0.00 0.00 0.00 91 1015.4
20260510130617 52 237 1.0 2.0 0.00 0.00 0.00 91 1015.4
20260510125617 52 263 2.0 2.0 0.00 0.00 0.00 91 1015.5
20260510124616 52 263 1.0 1.0 0.00 0.00 0.00 91 1015.4
20260510123617 52 263 1.0 1.0 0.00 0.00 0.00 91 1015.4
20260510122617 52 0.0 0.0 0.00 0.00 0.00 91 1015.3
20260510121617 52 263 1.0 1.0 0.00 0.00 0.00 91 1015.4
20260510120617 52 0.0 0.0 0.00 0.00 0.00 91 1015.4
20260510115617 52 0.0 0.0 0.00 0.00 0.00 91 1015.4
20260510114617 52 263 1.0 2.0 0.00 0.00 0.00 91 1015.3
20260510113617 52 263 0.0 1.0 0.00 0.00 0.00 91 1015.4
20260510112617 52 0.0 0.0 0.00 0.00 0.00 92 1015.3
20260510111617 52 0.0 0.0 0.00 0.00 0.00 91 1015.3
20260510110616 52 0.0 0.0 0.00 0.00 0.00 91 1015.2
20260510105617 52 263 0.0 1.0 0.00 0.00 0.00 92 1015.3
20260510104617 52 263 0.0 2.0 0.00 0.00 0.00 91 1015.1
20260510103617 52 278 1.0 1.0 0.00 0.00 0.00 91 1015.1
20260510102617 52 289 1.0 2.0 0.00 0.00 0.00 92 1015.1
20260510101617 52 0.0 0.0 0.00 0.00 0.00 92 1015.2
20260510100617 52 0.0 0.0 0.00 0.00 0.00 92 1015.1
20260510095637 51 0.0 0.0 0.00 0.00 0.00 92 1015.1
20260510094617 51 0.0 0.0 0.00 0.00 0.00 92 1015.1
20260510093637 51 0.0 0.0 0.00 0.00 0.00 92 1015.0
20260510092617 50 0.0 0.0 0.00 0.00 0.00 92 1015.1
20260510091617 50 0.0 0.0 0.00 0.00 0.00 91 1015.1
20260510090617 51 0.0 0.0 0.00 0.00 0.00 91 1015.2
20260510085617 51 0.0 0.0 0.00 0.00 0.00 91 1015.3
20260510084617 51 0.0 0.0 0.00 0.00 0.00 91 1015.4
20260510083617 51 315 0.0 1.0 0.00 0.00 0.00 91 1015.5
20260510082617 51 0.0 0.0 0.00 0.00 0.00 90 1015.5
20260510081617 51 0.0 0.0 0.00 0.00 0.00 90 1015.6
20260510080637 52 315 1.0 1.0 0.00 0.00 0.00 91 1015.5
20260510075617 52 0.0 0.0 0.00 0.00 0.00 90 1015.6
20260510074617 52 255 0.0 1.0 0.00 0.00 0.00 90 1015.6
20260510073615 53 0.0 1.0 0.00 0.00 0.00 90 1015.7
20260510072637 53 255 1.0 1.0 0.00 0.00 0.00 90 1015.7
20260510071617 53 0.0 0.0 0.00 0.00 0.00 90 1015.6
20260510070636 54 255 1.0 1.0 0.00 0.00 0.00 90 1015.8
20260510065617 54 255 1.0 2.0 0.00 0.00 0.00 90 1015.8
20260510064637 54 273 1.0 2.0 0.00 0.00 0.00 90 1015.7
20260510063617 54 266 0.0 1.0 0.00 0.00 0.00 90 1015.8
20260510062616 54 276 1.0 2.0 0.00 0.00 0.00 90 1015.7
20260510061657 54 274 1.0 3.0 0.00 0.00 0.00 89 1015.7
20260510060617 55 264 1.0 3.0 0.00 0.00 0.00 89 1015.7
20260510055637 55 278 2.0 3.0 0.00 0.00 0.00 89 1015.7
20260510054616 55 271 1.0 2.0 0.00 0.00 0.00 88 1015.7
20260510053617 55 271 1.0 2.0 0.00 0.00 0.00 88 1015.7
20260510052617 56 271 1.0 2.0 0.00 0.00 0.00 87 1015.8
20260510051617 56 271 0.0 2.0 0.00 0.00 0.00 88 1015.6
20260510050617 56 0.0 0.0 0.00 0.00 0.00 87 1015.6
20260510045617 56 271 0.0 1.0 0.00 0.00 0.00 87 1015.5
20260510044616 57 271 1.0 2.0 0.00 0.00 0.00 86 1015.4
20260510043617 57 248 2.0 2.0 0.00 0.00 0.00 86 1015.5
20260510042616 57 248 1.0 2.0 0.00 0.00 0.00 85 1015.4
20260510041616 58 248 0.0 2.0 0.00 0.00 0.00 85 1015.2
20260510040616 58 248 0.0 1.0 0.00 0.00 0.00 85 1015.1
20260510035616 58 248 1.0 2.0 0.00 0.00 0.00 84 1015.0
20260510034616 58 178 1.0 1.0 0.00 0.00 0.00 84 1015.0
20260510033616 59 178 0.0 1.0 0.00 0.00 0.00 83 1014.9
20260510032616 59 132 0.0 2.0 0.00 0.00 0.00 83 1014.7
20260510031615 59 140 0.0 1.0 0.00 0.00 0.00 82 1014.8
20260510030637 60 102 1.0 1.0 0.00 0.00 0.00 82 1014.6
20260510025616 60 98 0.0 3.0 0.00 0.00 0.00 81 1014.5
20260510024616 60 143 1.0 2.0 0.00 0.00 0.00 80 1014.6
20260510023616 61 124 1.0 2.0 0.00 0.00 0.00 79 1014.5
20260510022617 61 99 2.0 3.0 0.00 0.00 0.00 78 1014.5
20260510021636 62 114 2.0 4.0 0.00 0.00 0.00 76 1014.4
20260510020617 63 152 3.0 7.0 0.00 0.00 0.00 75 1014.4
20260510015617 63 152 3.0 6.0 0.00 0.00 0.00 73 1014.5
20260510014636 64 94 3.0 6.0 0.00 0.00 0.00 73 1014.4
20260510013616 65 154 4.0 8.0 0.00 0.00 0.00 72 1014.4
20260510012617 65 156 2.0 4.0 0.00 0.00 0.00 72 1014.4
20260510011617 66 101 6.0 7.0 0.00 0.00 0.00 70 1014.3
20260510010616 66 106 2.0 4.0 0.00 0.00 0.00 69 1014.2
20260510005616 67 86 3.0 6.0 0.00 0.00 0.00 68 1014.2
20260510004616 68 178 2.0 6.0 0.00 0.00 0.00 67 1014.3
20260510003637 68 155 4.0 5.0 0.00 0.00 0.00 66 1014.2
20260510002616 68 161 5.0 6.0 0.00 0.00 0.00 64 1014.2
20260510001616 69 113 2.0 4.0 0.00 0.00 0.00 64 1014.2
20260510000636 69 94 6.0 9.0 0.00 0.00 0.00 63 1014.1
20260509235616 70 98 3.0 5.0 0.00 0.00 0.00 63 1014.1
20260509234617 69 104 3.0 7.0 0.00 0.00 0.00 63 1014.1
20260509233616 69 99 6.0 9.0 0.00 0.00 0.00 62 1014.2
20260509232656 69 157 4.0 7.0 0.00 0.00 0.00 62 1014.3
20260509231616 69 161 5.0 8.0 0.00 0.00 0.00 62 1014.4
20260509230636 69 142 4.0 7.0 0.00 0.00 0.00 63 1014.3
20260509225616 70 155 5.0 7.0 0.00 0.00 0.00 63 1014.4
20260509224616 69 203 1.0 5.0 0.00 0.00 0.00 65 1014.5
20260509223616 68 124 4.0 7.0 0.00 0.00 0.00 66 1014.5
20260509222616 68 131 3.0 7.0 0.00 0.00 0.00 63 1014.7
20260509221616 68 165 4.0 7.0 0.00 0.00 0.00 65 1014.8
20260509220616 68 155 4.0 7.0 0.00 0.00 0.00 65 1014.8
20260509215616 68 139 4.0 8.0 0.00 0.00 0.00 65 1014.8
20260509214616 69 213 4.0 7.0 0.00 0.00 0.00 65 1014.9
20260509213616 68 189 4.0 5.0 0.00 0.00 0.00 66 1015.0
20260509212616 68 164 3.0 6.0 0.00 0.00 0.00 66 1015.1
20260509211616 67 194 3.0 5.0 0.00 0.00 0.00 67 1015.2
20260509210616 66 204 3.0 5.0 0.00 0.00 0.00 71 1015.3
20260509205616 66 150 4.0 6.0 0.00 0.00 0.00 69 1015.4
20260509204636 64 139 2.0 4.0 0.00 0.00 0.00 73 1015.4
20260509203616 64 97 4.0 6.0 0.00 0.00 0.00 73 1015.5
20260509202616 64 160 5.0 6.0 0.00 0.00 0.00 75 1015.7
20260509201616 63 126 3.0 7.0 0.00 0.00 0.00 75 1015.8